{"data":{"norad_id":51879,"epoch":"2026-09-19T07:19:21.663840Z","epoch_age_seconds":155094,"freshness":"FRESH","line1":"1 51879U 22022AD  26262.30511185  .00000351  00000+0  21544-4 0  9998","line2":"2 51879  53.1605 194.9531 0001491  90.0266 270.0908 15.34390173252687","mean_motion":15.34390173,"eccentricity":0.0001491,"inclination_deg":53.1605,"raan_deg":194.9531,"arg_perigee_deg":90.0266,"mean_anomaly_deg":270.0908,"bstar":2.1544e-5,"rev_number":25268,"period_min":93.848359129187,"perigee_km":461.7124746432,"apogee_km":463.75242191267,"semimajor_km":6840.8694482779,"source":"CELESTRAK","updated_at":"2026-09-20T09:00:39.950222Z"}}